Location: Ashtead
(51.3000°N, 0.3000°W)
Time: 12:12:42
(UTC+00:00)

Cosmos 371 Rocket - Pass Details

Date: 26 September 2023
Orbit: 681 x 695 km, 74.0° (Epoch: 10 December)

Event Time Altitude Azimuth Distance (km) Brightness Sun altitude
Exits shadow 03:37:14 38° 295° (WNW) 1,061 3.9 -21.3°
Maximum altitude 03:37:32 38° 304° (NW) 1,054 4.0 -21.3°
Drops below altitude 10° 03:42:05 10° 13° (NNE) 2,158 6.3 -20.7°
Sets 03:44:33 0° 21° (NNE) 3,076 7.3 -20.3°
